www.pogodaiklimat.ru
ПОГОДА в Филадельфии
Время
и дата
00:35 25.02
00:55 25.02
01:15 25.02
01:35 25.02
01:55 25.02
02:15 25.02
02:35 25.02
02:55 25.02
03:15 25.02
03:35 25.02
03:55 25.02
04:15 25.02
04:35 25.02
04:55 25.02
05:15 25.02
05:35 25.02
05:55 25.02
06:15 25.02
06:35 25.02
06:55 25.02
07:15 25.02
07:35 25.02
07:55 25.02
08:15 25.02
08:35 25.02
08:55 25.02
09:15 25.02
09:35 25.02
09:55 25.02
10:15 25.02
10:35 25.02
10:55 25.02
11:15 25.02
11:35 25.02
11:55 25.02
12:15 25.02
12:35 25.02
12:55 25.02
13:15 25.02
13:35 25.02
13:55 25.02
14:10 25.02
14:35 25.02
14:55 25.02
15:15 25.02
15:35 25.02
15:55 25.02
16:15 25.02
Ветер
(напр.,м/с)
Видим. Явления Облачность Т
(С)
Тd
(С)
f
(%)
Тe
(С)
Тes
(С)
Комфортность P
(гПа)
Po
(гПа)
Тmin
(С)
Tmax
(С)
R
(мм)
R24
(мм)
S
(см)
С 3 16 км ясно -3.9 -14.3 44 -9 -9 1006.1
С 3 16 км ясно -4.0 -14.4 44 -9 -9 1006.4 -4.0 -0.1
С 2 16 км ясно -4.3 -14.4 45 -8 -8 1006.8
СЗ 2 16 км ясно -4.4 -14.4 46 -8 -8 1006.8
С 2 16 км ясно -4.8 -14.3 47 -8 -8 1007.1
штиль 0 16 км ясно -5.2 -13.9 50 -6 -6 1007.4
С 2 16 км ясно -5.3 -14.2 50 -9 -9 1007.4
С 2 16 км ясно -5.4 -13.9 51 -9 -9 1007.8
штиль 0 16 км ясно -5.5 -13.9 52 -6 -6 1007.8
штиль 0 16 км ясно -6.4 -12.1 64 -7 -7 1008.1
штиль 0 16 км ясно -7.2 -10.8 75 -8 -8 1008.4
штиль 0 16 км ясно -7.0 -11.8 69 -8 -8 1008.4
штиль 0 16 км ясно -7.2 -11.5 71 -8 -8 1008.8
штиль 0 16 км ясно -7.9 -11.1 78 -8 -8 1009.1
штиль 0 16 км ясно -7.7 -11.2 76 -8 -8 1009.5
штиль 0 16 км ясно -8.0 -11.0 79 -9 -9 1009.8
штиль 0 16 км ясно -8.1 -10.8 81 -9 -9 1009.8
штиль 0 16 км ясно -8.6 -10.7 85 -9 -9 1009.8
штиль 0 16 км ясно -9.0 -10.6 88 -10 -10 1010.1
штиль 0 16 км ясно -9.0 -10.4 90 -10 -10 1010.1 -9.1 -4.0
штиль 0 16 км ясно -8.0 -10.5 82 -9 -8 1010.5
штиль 0 16 км ясно -6.3 -10.2 74 -7 -7 1010.8
СЗ 2 16 км ясно -5.0 -12.4 56 -9 -9 1011.1
штиль 0 16 км ясно -4.5 -12.4 54 -5 -3 1011.5
штиль 0 16 км ясно -4.0 -12.5 52 -4 -2 1011.5
штиль 0 16 км ясно -3.7 -13.1 48 -4 -2 1011.5
З 2 16 км ясно -3.0 -12.8 47 -6 -2 1011.5
штиль 0 16 км ясно -2.5 -12.9 45 -3 +3 1011.8
Ю 2 16 км ясно -2.0 -12.8 43 -5 -1 1011.5
З 2 16 км ясно -1.5 -12.8 42 -5 +2 1011.5
штиль 0 16 км ясно -0.9 -12.6 41 -1 +8 1011.1
штиль 0 16 км ясно -0.8 -12.7 40 -1 +8 1011.1
ЮВ 2 16 км ясно +0.1 -12.5 38 -3 +6 1010.8
ЮЗ 3 16 км ясно +0.7 -12.1 38 -3 +4 1010.5
штиль 0 16 км ясно +0.9 -12.8 35 +1 +13 опасность
простуды
1010.5
ЮВ 2 16 км ясно +1.4 -12.1 36 -1 +8 1010.1
ЮЗ 2 16 км ясно +1.9 -11.8 35 0 +9 1010.1
СЗ 2 16 км ясно +2.6 -11.0 36 0 +10 1009.8 -9.1 +2.9
штиль 0 16 км ясно +3.1 -10.7 36 +3 +15 опасность
простуды
1009.5
ЮЗ 2 16 км ясно +3.6 -10.1 36 +2 +10 опасность
простуды
1009.1
ЮЗ 3 16 км ясно +3.6 -10.6 35 +1 +8 1008.8
ЮЗ 2 16 км ясно +3.8 -11.3 32 +2 +9 1008.8
штиль 0 16 км ясно +4.3 -10.8 32 +4 +14 опасность
простуды
1008.4
З 2 16 км ясно +4.9 -10.1 33 +3 +10 1008.1
Ю 2 16 км ясно +5.1 -10.6 31 +4 +8 1008.1
ЮЗ 3 16 км ясно +5.4 -9.9 32 +3 +6 1008.1
ЮЗ 2 16 км ясно +5.2 -10.8 30 +4 +8 1008.1
Ю 3 16 км ясно +5.3 -9.9 32 +3 +4 1007.8
Местоположение метеостанции Wings Field Airport: широта 40.1375 долгота -75.2650 высота над уровнем моря 92 м.
В архиве по умолчанию представлена погода в Филадельфии за последние 1-2 суток. Обновление информации о фактической погоде в базе происходит ежечасно! Архивные данные за месяц целиком и за предыдущие месяцы Вы можете получить, выбрав интересующий диапазон дат из раскрывающегося списка и нажав кнопку "Ввод!".
Внимание! Архив погоды МЕТАР в базе сайта по станциям, не включенным в климатический монитор, хранится не более 60 дней. Нет смысла пытаться выбрать более раннюю дату.
*Определитесь, кто Вы:
Внимание! Время в таблицах - местное (без учета летнего времени). Для получения всемирного времени необходимо вычесть поправку, которая равна -5 ч.
Смотрите также архив погоды в соседних городах и на ближайших метеорологических станциях:
Партнеры нашего сайта:      
Пояснения к столбцам:
  • Ветер - указаны скорость ветра в м/с - средняя за 10 мин, порывы в срок и между сроками (в фигурных скобках) и направление, откуда дует ветер: С - северный,
  • СВ - северо-восточный, В - восточный, ЮВ - юго-восточный, Ю - южный, ЮЗ - юго-западный, З - западный, СЗ - северо-западный.
  • Видимость - горизонтальная дальность видимости в метрах или километрах. При видимости от 1 до 10 км при отсутствии осадков обычно наблюдается дымка, при ухудшении видимости до 1 км и менее - туман. В сухую погоду видимость может ухудшаться дымом, пылью или мглою.
  • Явления - указаны атмосферные явления, наблюдавшиеся в срок или в последний час перед сроком; фигурными скобками обозначены явления, наблюдавшиеся между сроками (за 1-3 часа до срока); квадратными скобками обозначены град или гололедные отложения с указанием их диаметра в мм.
  • Облачность - указаны через наклонную черту общая и нижняя облачность в баллах и высота нижней границы облаков в метрах; квадратными скобками обозначены формы облаков: Ci - перистые, Cs - перисто-слоистые, Cc - перисто-кучевые, Ac - высококучевые, As - высокослоистые, Sc - слоисто-кучевые, Ns - слоисто-дождевые, Cu - кучевые, Cb - кучево-дождевые. Подробнее классификацию облаков см. в Атласе облаков (PDF).
  • T - Температура воздуха - температура, измеренная на высоте 2 м над землей.
  • Td - Температура точки росы - температура, при понижении до которой содержащийся в воздухе водяной пар достигнет насыщения.
  • f - Относительная влажность воздуха - влажноcть воздуха, измеренная на высоте 2 м над землей.
  • Te - Эффективная температура - температура, которую ощущает одетый по сезону человек в тени. Характеристика душности погоды. При расчете учитывается влияние влажности воздуха и скорости ветра на теплоощущения человека.
  • Tes - Эффективная температура на солнце - температура, которую ощущает человек, с поправкой на солнечный нагрев. Характеристика знойности погоды. Зависит от высоты солнца над горизонтом, облачности и скорости ветра. Ночью, в пасмурную погоду, а также при ветре 12 м/с и более поправка равна нулю.
  • P - Атмосферное давление - приведенное к уровню моря атмосферное давление.
  • Po - Атмосферное давление - измеренное на уровне метеостанции атмосферное давление.
  • Tmin - Минимальная температура - минимум температуры воздуха на высоте 2 м над землей.
  • Tmax - Максимальная температура - максимум температуры воздуха на высоте 2 м над землей.
  • R - Количество осадков - Количество выпавших осадков за период времени, мм. При наведении курсора мыши на число - период времени, за который выпало указанное количество осадков.
  • R24 - Количество осадков - Количество выпавших осадков за 24 часа, мм.
  • S - Снежный покров - Высота снежного покрова, см. При наведении курсора мыши на число - состояние снежного покрова и степень покрытия местности в баллах.